Zurück zum Katalog

STARLINK-2406

AktivKommunikationVLEO
NORAD 47821·PAYLOAD·🇺🇸 United States

Gestartet Mar 11, 2021 von Cape Canaveral Space Force Station

Loading…

Nächste Überflüge (nächste 24 Stunden)

TLE

AktuellSource: CelesTrak SupGP

Epoche: Sep 14, 2026, 20:45 UTC

1 47821C 21018AL  26257.86506944  .00017082  00000+0  54943-3 0  2570
2 47821  53.1584  82.5388 0001146  82.6453 211.2371 15.31685699    15

Verfolge STARLINK-2406 in Echtzeit mit AllMySat

Download on the App Store